CONNECTA IOT-3

Last updated on Mon Sep 16 2024 00:02:03 GMT+0000 (Coordinated Universal Time)

1 60475U 24149H 24259.10940088 .00010902 00000+0 54238-3 0 9990 2 60475 97.4363 334.1680 0003939 10.9742 349.1577 15.17780125 4443
UTC large
Height (km)
Speed (km/s)
/
Latitude / Longitude
Inclination (degrees)
Orbital Period (minutes)
Azimuth
Elevation
Range (km)
Doppler Factor

Next 0 passes for location: London (51.5072 / 0.1276)

Sorry there are no passes over London.